GEFSSE_500_meanwind_204.txt.gz
Wind_Speed
8 8 7 7 7 7 7 8 9 10 10 10 10 9 8 8 7 7 8 8 8 7 7 6 5 6 7 7 7 8 8 8 8 8 7 7 7 7 7 7 7 7 8
8 8 8 7 7 7 8 8 9 9 10 10 9 9 8 7 7 8 8 8 8 7 7 6 6 6 7 7 7 7 8 8 9 8 7 6 7 7 7 6 7 7 7
8 8 7 7 7 7 8 8 8 9 9 9 9 9 8 8 8 8 8 8 7 7 7 6 7 7 7 7 7 8 8 8 9 8 7 7 7 7 6 6 6 7 7
8 7 7 7 7 7 8 8 9 9 9 9 9 9 9 9 9 9 9 9 8 8 8 7 7 7 7 7 8 8 8 8 8 8 7 7 7 7 6 6 6 6 7
8 7 7 7 6 6 7 8 9 9 9 10 10 10 9 10 10 10 10 9 9 9 8 8 7 7 7 7 7 8 8 8 8 8 7 7 7 6 6 6 6 6 7
7 7 7 6 6 6 6 8 9 9 9 9 9 10 10 10 10 10 10 9 9 9 8 8 8 7 7 6 7 7 7 7 7 7 7 7 7 7 6 6 6 6 7
7 6 6 5 5 5 6 8 8 8 8 9 9 9 9 10 10 9 9 9 9 9 9 8 7 7 7 7 7 7 7 7 7 7 7 7 6 6 6 6 6 6 6
6 6 5 5 5 5 6 7 7 8 8 9 9 10 9 9 9 9 9 8 8 8 8 7 7 7 7 7 7 6 7 7 7 6 7 6 6 6 6 6 6 5 5
6 5 5 5 5 5 5 6 7 7 8 9 9 10 9 8 8 8 8 8 7 7 7 7 7 7 7 6 6 6 6 6 6 7 7 6 6 6 6 6 6 5 5
6 6 5 5 5 5 6 6 7 7 8 8 9 9 9 8 7 7 7 7 7 7 7 7 7 7 7 6 6 6 6 6 6 7 7 6 6 6 6 5 5 5 5
7 6 6 5 5 5 6 6 7 7 8 7 8 9 8 8 7 7 7 7 7 7 7 7 7 6 6 6 6 5 6 6 6 6 6 6 6 6 6 5 5 4 5
7 6 6 5 5 5 5 5 6 6 6 6 7 7 7 7 7 7 7 7 7 7 7 7 7 6 6 6 6 6 6 6 6 6 6 5 5 5 5 5 5 4 4
7 6 5 5 5 5 5 5 5 5 5 6 6 6 6 6 6 6 6 6 6 6 6 6 6 6 5 5 5 6 6 6 6 6 5 5 5 5 5 4 4 4 3
8 7 6 6 5 5 5 4 4 4 4 5 5 5 6 6 6 6 6 6 5 6 5 5 5 5 5 5 5 5 5 5 5 5 5 5 5 5 4 4 3 3 3
9 8 7 6 5 5 5 4 3 4 4 4 4 4 5 5 5 5 5 5 5 5 5 5 5 5 5 5 5 5 5 5 5 5 5 5 4 4 4 4 3 3 3
9 8 7 6 5 4 4 3 3 3 3 3 3 4 4 4 4 4 4 5 4 4 4 4 4 4 4 4 4 4 4 4 4 4 5 4 4 4 4 4 4 4 4
10 8 8 6 5 4 3 3 3 3 2 2 3 3 4 3 3 3 4 4 4 4 4 4 3 3 3 3 3 3 3 3 4 4 4 4 4 4 4 4 5 5 4
11 9 8 7 6 5 4 3 2 2 2 2 2 3 3 3 2 2 4 4 4 4 4 4 4 3 3 3 3 3 3 3 4 5 5 5 5 5 6 5 6 6 7
11 10 9 8 8 6 5 3 2 1 1 2 1 2 2 2 2 3 4 4 4 4 4 4 4 4 4 5 4 4 4 5 5 6 6 6 6 6 6 7 7 8 8
12 11 10 9 9 8 7 5 4 2 1 1 1 1 1 2 2 3 4 4 4 4 5 5 5 5 6 6 6 6 6 7 7 7 8 8 8 8 8 9 9 9 10
11 11 10 10 9 8 7 6 5 4 2 1 1 2 2 2 3 3 4 5 5 6 6 6 7 7 7 7 7 8 8 9 9 9 10 10 10 10 10 11 11 11 12
12 11 11 11 10 9 8 6 5 4 3 2 2 3 3 3 4 4 5 6 6 6 7 7 8 8 9 9 9 10 11 11 11 12 12 11 11 12 12 13 13 13 14
12 11 11 10 10 10 9 7 6 5 4 4 3 3 3 4 4 4 5 6 6 7 7 8 9 9 10 10 11 11 12 12 13 13 14 13 13 14 14 14 15 16 16
11 11 11 10 10 10 10 9 7 6 6 5 5 5 5 5 5 5 6 7 7 8 8 9 10 10 11 12 13 13 13 14 14 14 15 15 15 15 16 17 17 18 18
11 11 11 11 10 9 9 10 9 8 7 6 6 6 6 6 6 7 8 8 8 9 9 10 11 12 13 13 14 14 14 15 16 16 16 17 17 18 18 18 19 19 19
11 11 11 11 11 11 10 11 11 10 9 8 8 8 8 6 7 8 9 9 9 10 11 12 13 14 14 14 15 15 16 16 18 18 18 18 18 18 18 18 19 19 20

GEFSSE_500_meanwind_210.txt.gz
Wind_Speed
6 6 5 5 5 4 3 3 3 3 4 5 5 6 6 6 6 6 6 7 7 8 7 7 7 8 8 9 9 9 9 8 8 7 7 7 6 6 6 6 7 7 7
6 6 5 4 4 4 3 2 3 3 4 5 5 6 6 6 6 6 6 6 7 7 6 6 6 6 7 8 9 8 8 8 7 7 7 6 6 5 6 6 6 6 6
6 6 6 5 4 4 4 4 4 3 4 5 5 6 6 6 6 5 5 5 6 6 6 6 5 6 7 8 8 8 8 7 7 6 6 5 5 6 6 6 5 5 6
7 6 6 5 5 5 5 4 4 3 3 4 4 5 5 6 5 6 6 6 6 5 5 5 5 6 7 7 7 7 7 7 7 6 6 5 5 6 6 5 5 5 6
7 7 6 4 5 5 5 5 4 4 3 3 3 4 5 6 6 6 6 6 6 5 5 5 6 7 7 7 7 7 7 7 6 6 6 6 5 5 5 5 5 5 6
7 7 7 5 5 5 5 5 5 4 4 4 4 5 6 6 6 6 6 7 6 6 6 6 7 7 7 7 7 7 7 6 6 6 6 5 5 6 5 5 4 5 5
8 8 8 7 6 5 5 5 5 5 5 5 5 6 6 7 6 5 6 6 6 7 7 7 7 7 7 6 6 6 6 6 6 6 5 5 6 5 5 4 4 5 5
8 8 8 8 7 6 6 5 5 5 5 5 6 6 6 6 6 5 6 6 7 6 6 6 6 6 6 5 6 6 6 6 5 5 5 6 6 5 5 4 4 4 5
7 8 7 6 6 6 6 6 5 5 5 5 5 5 6 6 5 5 5 6 7 6 6 5 5 5 5 5 5 5 6 6 5 5 5 5 5 5 5 4 3 4 5
7 7 7 6 5 5 5 5 5 5 4 5 5 5 5 5 5 5 6 6 6 6 6 5 5 4 5 5 5 5 6 5 5 5 5 4 4 4 4 3 3 4 4
8 7 7 6 6 5 5 5 5 5 4 4 5 5 5 5 5 5 5 5 5 5 6 6 5 5 5 5 5 5 5 5 5 5 4 4 4 3 3 3 3 3 3
9 8 8 7 6 5 4 4 4 5 5 4 4 5 5 5 5 5 5 5 4 4 5 5 5 5 5 5 5 4 5 4 4 4 4 4 3 3 3 3 3 3 3
9 8 8 7 6 5 4 4 4 4 4 4 4 4 4 4 4 4 4 4 4 4 4 4 4 4 4 4 4 4 4 4 4 4 4 4 3 3 3 3 3 3 2
10 9 8 7 7 6 5 4 4 4 4 4 4 3 3 3 3 3 3 3 3 3 4 4 4 4 3 3 3 3 3 4 4 4 4 3 3 4 3 3 2 2 2
11 10 9 8 7 6 5 4 3 3 3 3 3 3 2 2 2 2 2 2 3 3 3 4 4 3 3 3 2 2 3 3 3 3 3 3 3 3 3 3 2 2 2
12 10 9 8 7 6 6 4 3 3 3 2 2 1 2 1 1 1 1 2 2 2 2 2 3 3 3 2 2 2 2 3 2 3 3 3 3 3 3 3 3 3 3
12 11 10 9 8 7 6 6 4 3 3 3 2 1 1 1 1 0 2 2 1 1 1 1 2 2 2 2 2 2 2 2 3 3 3 3 4 4 4 4 5 5 5
13 12 11 11 9 8 7 6 5 4 3 3 2 2 1 1 2 1 1 2 3 2 2 2 2 2 2 2 2 3 3 3 4 4 4 5 5 5 5 5 6 6 7
13 12 11 11 10 9 8 7 6 6 4 3 2 2 2 3 3 3 3 3 3 4 3 3 3 3 3 4 4 4 5 5 5 5 5 6 7 7 7 7 8 8 9
14 12 12 12 11 10 9 8 7 6 5 4 3 3 3 3 4 4 4 4 4 5 5 5 5 5 5 6 6 7 7 8 7 8 8 8 8 9 9 10 10 10 10
15 12 12 12 11 11 10 9 8 6 6 5 4 3 4 4 4 5 5 5 5 5 6 6 7 7 7 7 8 8 9 10 10 10 10 10 11 11 11 11 12 12 12
14 13 12 11 11 10 10 10 9 8 7 6 6 5 5 5 6 6 6 6 5 6 7 7 7 7 8 9 9 10 10 11 12 12 12 13 13 13 13 13 13 14 14
13 13 13 12 11 11 11 11 10 9 8 8 7 7 6 6 7 7 7 6 7 7 8 8 9 9 10 10 11 11 12 13 13 13 13 14 14 14 14 14 14 15 15
13 13 13 12 11 11 11 11 11 10 9 8 9 8 8 8 8 8 8 8 8 9 9 10 10 11 11 11 12 12 13 14 14 14 14 15 15 16 16 16 16 16 17
13 13 13 12 12 11 11 12 11 10 10 10 10 9 8 9 9 9 9 9 10 10 10 11 12 12 13 13 13 14 15 16 16 16 16 16 17 18 18 19 18 18 18
13 13 13 13 13 12 12 13 12 12 11 11 11 11 10 10 10 10 10 11 11 11 11 12 13 13 14 14 15 15 15 16 17 17 18 18 18 19 20 20 20 19 20

GEFSSE_500_meanwind_216.txt.gz
Wind_Speed
6 6 5 5 5 5 4 4 4 4 4 5 4 4 4 4 6 6 6 6 6 6 6 7 8 8 9 10 10 10 10 10 10 9 9 8 8 8 7 7 8 8 8
6 6 5 4 5 4 4 5 4 4 4 4 3 4 4 5 5 5 5 5 6 6 6 6 7 7 8 9 10 10 9 9 9 9 8 8 8 7 7 7 7 7 7
7 6 5 5 6 5 5 5 5 5 4 4 4 4 5 5 5 5 5 5 5 6 6 6 7 7 8 9 9 9 9 8 8 8 8 8 7 7 6 7 7 6 7
7 7 7 6 6 5 4 5 5 5 4 3 4 5 5 5 4 5 5 5 5 6 5 5 7 7 8 8 9 9 8 8 8 8 8 8 7 6 6 6 6 6 7
8 7 6 6 6 6 5 5 4 4 3 4 4 5 5 4 4 4 5 5 5 6 6 5 6 7 8 8 8 9 8 8 8 7 7 7 7 6 6 6 6 7 6
10 8 7 6 6 6 5 5 5 4 4 4 5 6 5 4 4 4 5 5 5 6 6 6 6 8 9 9 9 9 8 8 8 7 7 7 6 6 7 7 6 6 6
10 9 8 7 6 6 6 6 5 5 5 5 6 6 6 5 5 5 5 5 5 5 6 6 7 7 8 8 8 8 8 8 7 7 6 6 6 6 7 6 6 6 7
10 10 10 8 7 6 7 7 6 6 6 7 7 7 6 6 5 5 5 5 5 5 6 7 7 7 7 7 7 7 7 7 7 6 6 6 6 7 6 6 7 7 8
10 10 10 10 8 8 8 8 8 8 8 8 8 7 6 6 5 5 5 5 5 5 5 6 6 7 7 7 6 7 7 7 7 7 6 7 7 7 7 6 8 7 7
10 10 9 10 9 8 8 8 8 8 9 8 8 7 6 5 5 5 5 5 5 5 5 5 6 7 6 6 6 7 7 6 6 7 7 7 7 7 6 7 7 7 7
10 10 10 10 9 9 9 9 8 9 9 8 7 7 6 6 5 5 5 5 5 4 5 5 5 6 5 5 6 6 6 5 5 6 7 7 7 6 6 6 6 6 7
11 10 9 9 9 8 8 8 8 8 8 7 7 7 6 6 5 5 5 5 5 4 4 4 5 5 5 5 6 6 5 5 5 5 6 7 7 6 6 5 6 6 7
12 11 10 9 9 8 8 8 8 7 7 6 6 6 6 5 5 4 4 4 4 4 4 4 4 4 4 5 5 5 5 5 5 5 6 6 7 6 6 6 6 6 6
12 11 11 10 9 9 8 8 8 7 7 6 6 6 5 4 4 4 4 4 4 4 4 4 4 4 4 4 4 4 4 4 5 5 6 6 6 6 6 6 6 6 6
12 12 11 10 9 9 8 8 7 6 6 6 5 5 4 4 3 3 3 4 4 4 4 4 3 3 4 4 4 3 4 4 4 5 6 6 6 6 6 6 6 6 6
12 11 11 10 9 8 8 7 6 5 5 5 4 4 3 3 2 2 2 2 2 2 3 3 3 3 3 3 4 3 4 5 5 5 6 6 6 7 7 7 7 6 6
13 11 11 10 10 9 8 7 6 5 5 4 4 3 3 2 1 1 2 2 2 2 3 3 3 3 3 4 4 4 5 5 5 5 6 7 7 7 7 7 7 8 7
14 13 12 11 10 9 9 8 7 6 5 4 3 3 3 2 1 0 2 2 2 3 3 3 3 4 4 5 4 4 5 6 6 6 6 7 7 7 8 9 9 9 9
15 14 13 12 11 10 9 8 7 6 5 5 4 4 3 3 2 2 1 2 2 3 3 4 4 5 5 5 5 5 6 6 7 8 8 8 8 9 10 10 10 10 11
15 14 13 12 11 10 10 9 8 6 5 5 4 3 2 2 2 2 1 1 2 3 4 4 4 5 6 6 6 7 7 7 8 9 9 10 11 11 11 12 12 12 12
14 14 13 12 12 11 10 9 8 7 5 4 3 3 3 3 2 2 2 2 3 3 4 5 5 6 6 7 8 8 9 9 9 10 11 12 12 12 13 13 13 14 14
14 13 13 12 11 11 10 9 8 7 6 5 5 4 5 4 3 3 4 4 4 5 5 6 7 7 7 8 8 9 10 10 11 11 11 12 13 13 14 15 15 15 17
14 13 13 12 11 10 9 9 8 8 7 6 5 5 5 5 4 4 5 5 6 7 7 8 8 9 9 10 10 11 11 12 13 13 13 14 15 15 16 16 17 17 17
13 13 13 12 12 11 10 9 9 8 8 7 7 6 6 6 5 5 5 6 7 8 8 9 9 10 11 11 12 13 14 14 15 15 16 16 16 17 18 18 18 18 18
12 13 12 12 12 11 10 10 10 9 8 8 8 8 8 7 6 6 6 6 7 8 8 9 10 11 12 12 12 13 14 15 16 17 17 17 18 18 19 19 20 20 20
11 11 11 11 11 11 11 10 10 10 9 9 9 9 9 9 8 7 7 7 8 8 9 10 11 11 11 12 13 13 14 14 15 16 17 18 19 19 19 19 20 20 20

GEFSSE_500_meanwind_222.txt.gz
Wind_Speed
4 4 4 4 5 5 5 6 7 7 7 7 6 6 6 6 5 5 5 5 5 6 6 5 6 6 7 8 8 9 10 9 9 9 8 7 7 7 6 6 6 6 6
5 4 5 5 6 6 6 6 7 7 7 7 7 7 6 5 5 4 4 5 5 5 5 5 5 5 6 8 9 9 9 9 9 8 8 7 6 7 7 6 6 6 6
6 5 6 6 6 6 7 6 7 7 7 7 7 6 6 5 5 5 5 5 5 4 5 5 5 5 7 8 8 9 8 9 9 8 7 7 6 6 6 5 6 6 5
7 7 7 7 7 7 7 7 6 7 7 6 6 6 6 5 5 5 5 5 5 4 5 4 4 5 7 8 8 8 8 8 8 8 7 7 6 5 5 4 4 5 5
8 7 7 7 7 7 7 7 6 7 7 7 6 6 6 5 5 5 5 5 5 4 4 4 4 5 7 7 7 8 8 8 7 7 7 6 6 5 4 4 4 4 4
8 8 8 8 8 7 7 7 6 6 7 6 6 6 6 6 5 5 5 5 4 4 4 4 4 5 7 7 7 7 7 7 7 7 7 6 6 5 4 4 4 4 4
8 9 9 9 8 7 7 7 6 5 6 6 6 6 7 6 6 5 5 5 4 4 4 4 5 5 6 6 6 7 7 7 7 7 7 6 6 5 4 4 4 4 4
9 9 9 9 8 8 7 6 5 5 6 7 7 7 7 7 6 5 5 4 4 4 4 4 5 6 6 6 6 6 6 6 6 6 6 6 5 5 4 4 4 4 5
10 10 10 9 8 8 8 7 7 7 7 8 7 7 7 6 6 5 5 4 4 4 4 4 5 5 5 6 6 6 6 7 6 6 5 5 5 4 4 4 4 4 5
11 10 10 9 9 9 9 9 9 9 9 9 8 6 6 6 6 5 5 4 3 3 3 4 4 4 5 5 5 6 6 6 7 6 5 4 4 4 4 4 4 5 5
11 10 10 9 9 9 10 10 10 10 9 9 7 6 6 6 6 5 4 4 4 4 4 3 3 4 4 4 4 6 6 6 6 6 6 5 5 5 5 5 5 5 5
10 10 10 10 10 10 10 9 9 9 9 8 7 7 6 6 6 5 4 4 4 4 3 3 4 3 3 3 4 5 6 6 5 6 6 6 6 5 6 6 6 6 5
10 10 10 10 10 9 9 9 9 8 8 7 7 6 6 5 5 4 4 4 4 3 3 3 3 3 2 2 3 4 5 5 5 5 5 6 6 6 6 7 6 5 6
10 10 10 10 9 9 8 8 7 7 7 6 6 5 5 4 4 3 3 3 2 2 2 2 2 3 2 2 2 3 4 4 5 5 4 6 7 7 7 7 7 6 6
11 10 9 9 9 9 8 7 7 7 6 6 5 4 4 3 2 2 2 2 1 1 1 1 2 3 3 3 3 3 4 4 5 6 6 6 6 7 7 8 7 7 7
11 10 10 9 9 9 8 7 7 6 6 5 5 4 3 2 1 1 1 1 2 2 2 2 3 3 4 4 4 4 4 5 5 6 6 7 7 7 8 8 8 8 8
11 11 10 9 9 8 7 7 6 6 5 5 4 4 3 3 1 1 1 1 2 2 2 3 3 3 4 4 5 5 5 5 6 6 7 8 8 9 9 9 10 10 9
12 11 11 10 9 8 8 7 6 6 5 4 4 3 3 3 2 2 1 1 2 3 3 4 4 4 5 5 5 6 7 7 7 7 7 8 8 9 10 10 11 11 10
12 12 11 10 9 9 8 7 7 6 5 5 4 3 3 2 2 2 2 2 2 3 4 5 5 5 5 6 7 7 8 8 8 8 9 9 10 10 11 11 12 13 13
12 12 11 10 10 9 8 7 6 6 4 4 3 3 3 3 2 2 3 3 4 4 5 5 6 6 7 7 8 8 8 9 9 10 10 11 11 12 12 13 13 14 14
12 11 11 10 9 8 8 7 6 5 4 4 3 3 4 4 3 4 4 4 4 4 5 7 7 8 8 9 9 9 9 9 10 10 11 11 12 13 13 13 14 15 15
12 11 10 9 9 9 8 7 6 5 5 4 4 4 4 5 5 5 5 5 6 6 6 7 8 9 10 10 10 10 11 11 12 12 13 13 14 14 15 15 16 16 16
12 11 10 9 9 9 8 7 7 7 7 5 4 4 5 5 5 6 6 6 7 7 7 8 8 9 11 12 12 12 12 12 13 14 14 15 15 16 17 17 17 17 18
11 11 10 10 10 10 9 9 8 7 7 6 6 6 6 6 6 6 7 7 8 8 8 9 9 10 11 12 13 13 13 14 14 15 15 16 16 16 17 18 18 19 20
9 10 10 10 9 9 9 9 9 8 8 8 7 7 8 8 7 7 7 8 8 8 8 9 9 10 11 12 13 13 13 14 15 16 16 17 16 17 18 19 20 20 21
7 8 9 9 9 9 9 9 9 9 9 9 9 9 8 8 8 7 7 8 8 8 9 10 10 11 11 12 13 14 14 14 14 15 16 16 17 18 19 20 20 21 21

GEFSSE_500_meanwind_228.txt.gz
Wind_Speed
7 7 6 6 7 7 7 8 9 9 9 11 10 10 10 9 10 10 9 9 9 9 9 8 8 8 8 8 8 9 10 9 9 9 8 7 7 7 6 7 6 5 5
8 7 7 6 6 7 8 8 9 9 9 10 10 10 9 9 9 9 9 9 9 9 8 7 7 8 8 8 8 9 8 8 8 8 8 7 7 6 6 5 5 5 5
8 7 7 7 6 7 8 8 9 9 9 10 10 10 9 8 9 8 8 8 8 8 8 8 7 7 7 8 8 8 7 8 8 8 8 7 6 5 5 5 5 4 5
8 7 7 8 7 7 8 9 9 10 10 9 9 9 9 9 9 8 8 8 8 8 8 7 7 6 7 7 8 8 8 8 8 8 7 6 6 5 5 5 5 5 5
8 7 6 7 7 8 8 9 10 10 10 10 9 9 9 9 9 8 8 8 7 8 8 7 6 5 6 8 8 9 8 8 7 7 6 6 5 5 5 5 4 4 4
8 7 6 6 7 7 8 8 9 9 10 9 9 9 8 8 8 8 8 7 7 7 7 7 6 6 6 8 8 9 9 8 8 7 6 6 5 5 5 4 4 4 4
8 7 6 6 6 7 7 7 8 9 9 9 9 8 8 8 8 9 8 8 7 7 7 6 6 6 7 8 8 8 8 8 8 7 7 6 5 5 5 4 4 4 4
8 7 7 7 7 7 6 6 7 8 8 9 9 8 7 8 9 8 8 7 7 7 7 6 6 5 7 7 7 8 7 8 8 8 7 7 6 5 5 4 4 4 4
8 7 7 7 6 6 6 6 6 7 8 8 8 8 7 8 8 8 8 7 7 7 6 6 6 6 6 6 6 7 8 8 7 7 7 7 6 5 5 5 5 4 3
8 7 7 6 7 6 6 6 7 8 8 8 8 8 8 7 7 7 7 6 6 7 6 6 6 6 6 6 6 6 7 7 7 7 7 7 6 5 5 5 5 5 4
9 8 8 7 7 8 7 7 8 9 9 9 8 8 8 7 7 6 6 6 6 6 6 5 5 5 6 6 6 7 7 7 7 7 7 7 7 6 5 5 5 5 5
8 8 9 8 8 8 8 8 9 9 9 8 8 7 7 7 6 6 5 5 5 5 5 5 5 4 5 6 6 6 7 7 7 7 7 7 7 6 6 5 5 6 6
9 9 8 9 8 8 8 9 9 9 8 7 7 6 5 5 5 5 4 4 4 4 4 4 5 4 5 6 6 6 7 7 7 7 7 7 7 7 7 7 6 7 7
9 9 9 8 8 8 8 8 8 7 7 6 6 5 4 4 4 4 4 4 3 3 4 3 3 4 4 5 6 6 6 8 7 7 7 7 8 8 8 8 7 8 8
9 9 9 8 8 8 7 7 7 7 6 6 5 4 4 3 3 3 3 3 3 3 3 4 3 4 4 4 5 5 6 8 8 8 8 7 8 8 9 8 9 9 9
9 8 8 8 8 8 7 7 7 6 6 5 5 4 3 2 2 2 2 2 2 2 2 3 3 3 3 3 4 5 6 7 7 8 8 8 8 8 8 9 9 10 10
9 9 9 8 8 8 7 6 6 5 5 4 4 3 3 2 2 1 1 2 2 2 2 2 3 3 3 4 4 5 5 6 7 8 8 9 10 10 9 10 10 11 11
10 9 9 9 8 8 7 6 5 5 5 4 4 3 3 2 2 1 0 1 2 3 3 3 3 4 4 5 5 6 6 7 8 8 9 9 10 10 11 11 11 12 13
10 9 9 8 8 7 7 6 5 4 4 4 3 3 2 2 2 2 1 1 3 4 4 4 4 5 6 6 6 6 7 8 9 9 9 10 10 11 11 11 12 12 13
10 9 9 8 8 7 7 6 5 4 3 3 2 2 2 1 2 2 2 2 3 4 5 6 6 7 7 7 7 8 8 8 9 10 10 11 11 11 12 12 13 13 13
9 9 8 8 7 6 6 6 6 5 4 3 2 2 2 2 3 3 4 4 5 6 7 7 7 7 8 8 9 9 9 10 10 11 12 12 12 12 13 13 14 14 15
9 9 8 8 7 6 6 6 6 6 5 4 3 3 3 3 4 4 4 5 5 6 6 7 8 8 8 8 9 9 9 10 12 12 13 13 14 14 15 15 15 16 16
9 9 8 8 7 7 7 6 6 6 6 5 4 5 5 5 4 5 5 5 5 6 6 7 8 9 9 10 10 10 10 11 11 12 13 14 15 15 15 16 16 16 16
8 8 8 7 7 6 6 6 6 6 6 6 6 6 6 6 5 5 5 5 6 6 6 7 7 8 9 10 11 11 12 12 12 13 14 15 15 16 17 17 17 18 18
8 8 8 7 7 6 6 6 7 7 7 7 7 8 8 7 7 7 7 7 7 7 7 8 8 9 9 10 10 11 11 12 13 13 14 15 16 17 17 17 18 19 20
8 8 8 8 7 7 6 7 7 7 8 8 8 8 9 9 9 8 8 8 8 8 8 8 9 10 11 11 11 11 11 12 12 13 14 15 16 17 17 17 18 19 20

GEFSSE_500_meanwind_234.txt.gz
Wind_Speed
4 4 4 4 4 4 4 4 4 5 6 7 8 8 8 9 10 9 8 9 9 9 9 8 9 9 8 7 7 8 8 8 8 7 7 7 6 5 4 4 4 4 5
4 4 4 5 5 5 4 4 5 5 6 7 8 7 8 8 9 9 8 9 8 8 8 8 8 8 8 8 8 8 9 9 8 7 7 7 6 5 5 4 4 5 6
4 4 4 5 5 5 4 4 4 5 6 6 7 7 7 8 8 8 8 8 7 7 7 7 7 7 7 8 9 9 9 8 7 6 6 6 5 5 5 5 5 5 6
4 5 5 5 5 5 4 4 5 5 5 6 6 6 7 7 7 7 7 7 7 6 6 7 6 6 6 7 7 8 8 7 6 6 5 4 5 5 6 6 5 5 6
4 5 5 5 5 5 4 4 4 4 4 5 5 5 6 7 7 6 6 6 6 5 6 6 6 5 6 6 7 7 7 7 6 6 5 4 5 6 5 5 4 5 5
4 4 5 5 5 5 5 5 5 4 4 5 5 5 5 6 6 6 6 5 5 5 5 5 4 4 5 6 6 7 6 6 6 5 5 4 4 5 5 5 5 4 4
4 5 6 6 5 5 5 5 4 4 4 5 5 5 5 5 5 5 5 5 5 4 3 3 3 4 5 6 6 6 6 6 6 4 4 5 5 5 5 5 5 4 4
5 5 4 4 5 5 5 5 4 4 4 4 5 5 4 5 5 5 4 5 4 4 3 2 2 3 5 6 7 7 7 6 6 5 4 4 5 5 5 4 4 4 4
5 5 4 4 3 4 5 4 4 4 4 4 4 4 4 4 4 5 4 4 4 3 3 2 3 4 5 6 7 7 7 7 6 5 4 4 4 4 4 4 4 3 3
6 5 4 4 4 4 4 4 4 4 4 4 3 3 4 4 5 5 4 4 3 3 3 2 3 4 5 5 6 7 7 6 6 5 5 4 4 4 4 4 4 3 3
8 6 5 5 5 4 4 3 3 4 4 4 4 4 4 4 3 4 4 3 3 3 2 2 3 4 4 5 6 6 6 6 6 5 5 5 4 4 4 5 4 4 3
8 8 7 7 6 6 4 3 3 3 3 4 4 4 4 3 3 2 3 3 2 2 2 1 1 3 4 5 5 5 5 5 5 5 5 5 4 4 5 5 6 6 5
9 9 8 8 7 6 6 5 4 4 4 3 3 3 3 2 2 2 2 2 2 2 2 1 1 2 3 4 4 5 6 5 5 4 5 5 5 5 5 5 6 6 6
9 9 8 8 7 7 7 6 5 5 4 3 3 3 2 2 1 1 1 2 2 2 2 1 1 2 2 4 5 6 6 6 5 5 5 6 6 6 6 6 6 7 7
10 9 8 8 8 7 7 6 5 4 3 3 3 2 2 1 1 1 2 2 2 2 2 2 2 2 3 3 4 6 7 6 6 6 6 7 7 7 7 7 7 8 8
11 10 9 9 8 7 7 6 5 5 4 3 3 2 2 1 2 1 1 2 2 2 2 2 2 3 3 4 5 6 7 6 6 7 7 7 8 8 8 8 8 9 9
12 11 10 9 8 7 7 6 6 5 5 4 4 3 3 2 2 2 2 2 3 4 3 3 3 3 4 5 6 7 7 7 7 8 8 8 8 8 9 9 10 10 10
12 12 11 10 8 7 7 6 5 5 5 4 4 4 3 3 3 3 4 3 4 4 4 4 4 4 5 5 6 7 7 8 9 9 9 10 9 10 10 10 10 11 11
12 11 11 10 9 8 8 7 6 5 5 5 4 4 4 4 4 4 4 4 4 4 4 4 5 5 5 5 6 6 7 8 9 10 10 10 10 10 10 11 11 12 12
12 11 11 10 9 8 7 7 7 6 6 6 5 5 5 5 5 5 5 5 5 5 5 5 5 6 6 6 7 7 8 9 10 10 11 11 11 11 12 12 12 12 12
12 12 11 10 9 9 8 9 8 7 6 6 5 6 6 6 6 6 7 7 7 6 6 6 7 7 8 7 8 8 8 9 10 11 11 12 12 12 13 13 13 13 13
12 12 12 11 9 9 8 8 8 8 7 7 7 6 6 6 6 7 7 8 7 7 7 7 7 8 8 8 8 8 9 9 10 11 12 12 12 12 12 13 14 14 15
12 12 11 11 10 9 9 9 9 8 8 8 8 8 7 7 7 7 8 9 8 8 8 8 8 8 9 9 9 9 9 10 10 11 11 11 12 12 13 14 14 15 15
11 11 11 11 11 10 10 9 9 9 9 9 8 8 8 8 8 8 9 9 9 9 9 9 9 9 9 9 9 10 10 10 10 11 11 12 12 12 13 13 14 14 15
11 11 11 11 10 10 10 10 9 9 9 10 10 9 9 9 9 9 10 10 10 10 10 11 10 10 10 11 11 11 12 12 12 12 12 12 12 13 14 14 14 15 16
11 10 10 11 11 10 10 10 10 10 10 10 10 10 10 9 9 10 11 11 11 11 11 12 12 11 11 11 12 13 13 13 13 13 13 12 13 14 15 15 15 15 16

GEFSSE_500_meanwind_240.txt.gz
Wind_Speed
5 6 6 6 6 6 6 5 4 4 4 5 6 6 8 9 10 11 11 11 11 10 10 10 9 9 9 10 9 8 8 7 7 7 7 7 6 6 4 4 5 5 5
6 6 6 6 7 6 6 5 5 4 4 5 6 6 7 8 8 9 9 10 9 10 10 10 9 9 9 9 9 8 8 8 7 7 7 6 6 5 5 4 5 5 6
6 6 7 7 7 6 6 5 4 5 5 5 6 6 6 7 7 8 8 9 8 9 9 9 9 8 9 9 9 9 8 7 7 7 6 6 6 5 5 5 6 6 7
5 6 7 7 7 6 6 5 4 4 5 6 6 6 6 6 7 7 7 8 8 8 8 8 8 8 9 9 9 8 8 7 7 7 6 6 6 5 5 6 6 6 6
5 6 7 7 7 7 6 5 5 4 4 5 6 6 6 6 6 6 6 6 7 7 7 7 7 7 8 8 8 8 8 7 7 6 6 6 6 6 6 6 6 6 7
6 6 6 6 6 7 6 5 5 5 5 5 6 6 6 6 6 6 6 6 6 6 5 5 5 6 6 7 7 8 7 6 7 7 6 6 6 5 6 6 6 6 7
7 6 6 6 7 7 7 6 6 6 6 6 6 6 6 6 5 6 6 5 5 5 4 4 4 5 6 7 7 8 7 6 6 6 6 6 6 5 6 6 6 6 6
6 6 7 7 7 7 6 6 6 6 6 6 6 5 5 5 5 5 4 4 4 4 4 4 4 5 5 6 7 8 8 7 7 6 6 6 6 5 6 7 6 5 5
8 8 7 7 7 7 6 6 6 6 6 6 5 4 4 4 4 4 3 3 3 4 4 4 3 5 6 7 8 8 8 8 7 6 6 6 5 5 6 6 5 5 4
8 8 7 7 7 7 6 6 6 5 5 5 5 4 4 4 4 4 3 3 3 3 3 3 3 4 5 6 8 9 8 8 8 7 7 6 6 6 6 6 5 5 5
10 9 8 7 7 7 5 5 5 5 5 5 5 4 4 4 3 3 3 3 3 2 2 2 2 2 4 6 7 8 8 8 8 8 7 7 6 6 6 5 4 5 5
11 9 9 8 7 6 5 4 4 5 4 4 4 4 3 3 3 3 3 3 3 2 2 2 2 2 3 5 7 8 8 8 9 8 8 7 7 6 6 5 4 5 5
12 11 10 9 8 7 6 5 4 5 5 5 4 4 4 3 3 3 2 2 2 2 2 2 2 2 3 5 6 7 7 9 9 8 7 7 7 6 5 5 5 5 6
12 12 12 11 10 10 9 7 6 6 7 6 5 4 4 3 3 2 2 2 2 2 1 2 2 2 3 4 5 6 7 9 9 8 7 7 7 7 6 5 6 7 7
13 12 12 11 11 11 10 8 7 7 6 5 4 4 3 2 2 1 2 2 1 1 1 2 3 3 3 4 4 5 7 8 8 7 7 8 8 7 7 7 7 7 8
13 13 12 12 11 11 11 10 9 7 7 6 5 5 4 3 2 1 1 1 2 2 2 2 2 3 3 4 5 6 7 6 7 7 8 8 9 8 8 8 9 8 9
12 12 12 11 11 10 10 10 9 8 7 6 5 5 4 3 3 2 1 0 1 2 2 2 2 3 4 5 5 6 6 7 8 8 8 9 9 9 9 9 10 10 10
13 12 12 11 11 10 9 9 9 8 8 6 6 5 4 3 3 3 2 1 1 1 2 2 3 3 4 5 5 6 7 8 8 8 9 9 10 10 10 10 10 11 11
13 12 12 11 11 10 10 9 8 8 8 7 6 6 5 4 3 3 2 2 1 1 2 2 3 4 4 5 5 6 7 8 8 8 8 9 10 10 11 11 11 10 11
13 12 12 11 10 10 10 9 8 8 7 7 7 6 6 5 4 4 3 3 2 2 2 3 4 4 5 6 7 7 8 7 7 8 8 9 9 10 11 12 11 11 12
12 12 12 11 10 10 9 9 8 8 7 6 6 6 5 4 4 4 4 4 3 3 3 4 5 5 6 7 7 7 8 7 8 8 8 9 9 10 10 11 12 12 12
11 11 11 10 10 9 8 8 8 8 8 7 6 6 5 4 4 4 4 4 4 4 4 4 5 6 7 7 7 7 7 8 9 8 9 9 9 9 10 10 11 11 12
9 9 10 9 9 8 7 7 7 7 7 7 7 6 6 5 5 4 5 4 5 5 4 4 5 5 6 6 7 7 7 7 8 9 9 9 10 10 11 11 11 12 12
8 8 8 9 8 7 7 6 6 5 6 6 6 6 6 6 6 5 5 4 5 6 5 5 6 6 7 7 7 7 7 8 8 9 9 9 10 11 12 12 12 12 13
7 7 7 8 7 6 7 6 5 5 5 5 5 5 5 6 6 6 6 6 7 7 6 6 6 6 6 7 7 8 8 9 9 10 10 11 11 12 12 12 13 13 14
7 7 6 7 8 9 9 7 6 6 6 5 5 5 5 6 6 6 6 7 7 7 7 6 6 7 7 7 8 8 9 10 10 10 10 10 11 12 13 13 13 14 14

GEFSSE_500_meanwind_246.txt.gz
Wind_Speed
5 5 5 5 6 7 7 7 7 7 8 8 7 7 8 9 9 10 11 10 9 10 10 10 9 9 8 8 7 7 6 6 6 5 5 4 3 3 2 2 2 3 3
5 5 5 5 6 7 7 7 7 7 8 8 7 8 8 9 10 10 10 10 10 10 9 9 8 8 8 7 7 7 6 6 6 5 5 4 4 3 3 2 2 3 3
5 5 5 6 6 7 8 8 7 7 8 7 7 7 7 8 8 10 10 10 10 10 9 8 7 8 7 6 6 6 6 6 5 5 5 4 4 4 3 2 2 3 4
6 6 6 6 6 7 7 7 7 7 6 6 6 6 6 6 6 8 8 8 9 8 8 7 6 7 7 6 6 5 6 6 5 5 5 4 4 3 3 3 3 4 4
6 6 6 6 6 7 7 6 6 6 6 6 6 7 6 6 6 7 7 7 7 7 7 6 7 6 6 6 6 5 5 6 5 5 4 3 3 3 3 3 3 3 3
6 7 7 7 7 7 6 7 6 6 6 6 7 7 7 6 6 6 6 6 6 6 5 5 5 6 5 5 4 5 5 5 5 5 4 4 4 4 3 3 4 3 4
7 8 8 8 8 8 7 7 7 6 6 6 6 7 6 6 6 5 5 5 5 4 4 4 4 5 4 4 4 5 5 6 5 5 4 3 3 4 3 3 4 4 4
8 9 8 8 7 7 7 7 7 6 6 6 6 6 6 5 5 4 5 4 4 4 3 3 4 4 4 5 5 5 6 5 5 5 4 4 4 3 3 3 3 4 5
9 9 8 8 8 7 7 7 7 6 6 6 6 5 5 5 4 4 4 3 3 3 2 2 3 3 4 5 5 5 5 5 6 5 4 4 3 3 3 3 4 4 4
9 9 8 8 8 8 8 7 7 7 7 6 6 5 5 5 4 4 3 3 3 2 2 2 2 3 3 4 5 5 6 6 6 5 4 4 3 4 3 4 4 4 4
9 9 9 9 9 8 7 7 6 6 6 5 5 6 5 5 4 3 3 2 2 2 2 3 3 3 3 4 5 6 7 6 7 6 5 5 4 5 5 5 5 5 5
10 10 9 9 9 8 7 6 5 5 5 5 5 5 5 4 3 3 2 2 2 2 3 3 3 3 3 4 6 7 8 7 7 8 7 6 5 6 7 6 6 6 6
10 10 10 9 9 8 7 6 5 5 5 4 4 4 3 3 3 2 2 2 2 2 3 3 2 3 3 5 6 7 8 8 9 8 8 7 7 7 7 7 7 7 7
10 10 9 10 9 9 7 5 5 4 3 3 3 3 2 2 2 2 2 2 2 2 2 3 3 3 3 5 6 7 8 8 9 9 9 9 8 8 8 9 8 8 8
11 10 10 10 10 9 8 6 5 4 4 3 3 3 2 2 2 2 2 2 2 2 2 2 2 3 3 5 5 6 7 8 9 9 9 9 9 9 9 9 9 9 9
11 10 10 10 9 9 8 7 6 5 5 4 3 3 3 2 1 1 1 1 1 2 1 2 2 2 3 4 5 6 7 8 9 10 10 10 10 9 10 10 10 10 10
10 10 10 9 9 8 8 8 8 6 5 4 4 3 3 2 1 1 1 1 1 1 1 2 2 2 3 3 5 5 6 7 8 9 10 11 10 10 10 10 11 11 11
9 9 9 8 8 8 7 7 7 7 6 5 4 3 3 2 2 1 1 0 1 1 1 2 2 2 3 4 4 5 7 8 8 9 10 10 9 9 10 10 11 11 12
9 9 9 8 7 6 6 6 6 6 5 4 4 3 3 2 2 1 0 0 1 1 2 3 3 4 4 4 5 5 6 7 9 10 9 9 10 10 10 11 11 12 12
7 8 9 8 7 6 6 5 5 5 4 3 3 3 2 1 2 2 1 1 1 2 3 4 4 5 5 6 5 6 7 8 9 10 9 10 10 11 11 11 12 12 13
7 8 8 9 8 7 6 5 5 4 4 3 2 2 1 1 2 2 2 2 2 3 4 5 5 6 7 7 8 8 9 9 10 10 10 10 10 11 11 12 13 13 14
6 6 7 8 8 7 7 6 5 4 3 3 3 2 3 2 2 3 3 3 3 4 5 5 6 6 7 8 8 8 9 10 11 11 11 11 11 11 12 12 13 14 14
5 5 5 6 6 6 6 5 4 4 3 2 2 3 3 3 3 3 3 4 5 5 5 6 6 6 7 8 8 8 9 10 11 11 11 11 11 11 11 12 13 14 15
4 3 4 5 5 5 5 4 5 4 3 2 2 2 2 3 4 4 4 5 5 5 6 7 7 7 8 9 9 9 9 10 9 10 10 11 11 12 13 14 14 14 15
3 3 4 4 5 5 5 4 5 4 4 3 2 2 2 3 4 4 4 5 6 6 6 7 8 8 9 9 10 10 10 10 10 10 10 11 12 13 14 15 15 15 16
3 3 4 4 5 5 5 5 5 4 4 4 3 3 3 4 5 5 5 6 6 7 7 8 8 8 9 9 10 10 10 10 11 11 11 11 12 14 15 15 16 16 16

GEFSSE_500_meanwind_252.txt.gz
Wind_Speed
6 7 7 7 7 6 6 7 8 8 8 9 9 9 10 10 11 11 11 11 11 11 11 10 10 10 9 9 8 8 7 7 6 5 4 4 3 3 2 2 2 2 3
7 6 7 7 6 7 7 7 8 8 9 10 10 10 11 11 11 11 11 11 11 11 10 10 10 9 9 8 8 7 7 6 6 5 4 4 3 3 2 2 2 3 3
7 6 6 6 6 7 8 8 8 9 10 10 10 10 11 12 11 11 11 11 11 10 10 10 9 8 9 8 7 7 6 6 5 5 4 4 3 2 2 2 3 3 3
7 7 7 6 6 7 8 9 9 10 10 10 10 11 11 11 10 10 10 10 10 9 9 9 8 8 7 7 6 6 6 6 5 5 4 4 3 3 2 2 3 3 3
8 8 7 7 7 7 8 9 9 10 10 10 9 9 10 9 9 9 9 9 9 9 9 8 8 8 6 6 5 5 5 5 5 5 4 4 3 3 3 3 3 4 4
8 7 7 8 7 7 8 8 8 8 9 9 8 7 8 7 8 9 9 8 7 7 6 6 7 7 6 6 5 5 5 5 4 4 4 4 3 3 3 4 4 4 5
8 7 7 8 7 7 7 7 8 8 7 7 8 7 7 7 7 7 7 7 7 6 6 6 7 8 6 6 6 5 5 5 5 4 3 4 4 3 4 4 4 4 4
7 7 7 7 7 7 7 8 7 7 7 7 7 7 6 6 6 7 7 7 7 6 6 6 7 6 5 6 6 6 6 5 5 5 4 4 4 4 5 4 4 4 5
8 8 8 7 7 7 7 7 7 7 7 7 7 6 6 6 6 6 6 6 6 5 5 5 5 5 5 5 5 5 6 6 6 5 5 4 4 4 4 4 4 5 5
8 8 8 7 7 6 6 6 7 7 7 7 7 6 6 6 6 5 6 6 5 4 4 4 4 4 5 6 5 5 6 6 7 6 5 5 5 4 4 4 4 5 6
8 7 7 7 7 7 6 6 6 7 7 6 6 5 5 5 5 4 4 5 5 4 4 3 3 3 4 5 5 5 6 6 7 6 6 6 5 5 5 5 5 5 6
8 8 8 7 7 6 7 7 7 6 6 6 5 5 5 5 4 4 3 3 4 4 4 3 3 4 3 4 5 6 6 7 7 7 7 7 6 6 6 6 6 6 6
7 7 7 7 7 7 6 6 6 5 5 5 5 6 5 3 3 3 2 3 3 3 4 3 3 4 4 4 5 6 7 8 9 8 8 8 7 7 7 7 7 7 6
7 7 7 6 6 6 6 5 6 6 5 5 5 5 4 4 3 3 2 3 3 3 4 3 3 3 4 4 6 6 7 8 9 9 8 8 8 9 8 8 9 8 8
7 7 6 6 5 5 5 6 5 4 4 4 4 4 4 4 4 3 3 3 2 3 3 3 3 4 4 5 6 7 7 8 8 8 8 8 9 9 9 9 9 9 9
6 6 6 5 5 5 5 5 5 4 4 3 3 3 3 4 3 3 2 2 3 3 3 3 4 4 5 5 5 6 7 7 7 7 8 9 9 9 10 9 9 10 10
5 5 5 5 5 5 4 4 4 4 3 3 3 3 3 3 3 2 2 2 3 3 3 3 3 4 4 5 5 6 6 6 7 7 8 9 9 9 9 9 10 10 10
5 4 4 4 4 4 4 4 4 3 3 2 2 3 3 3 2 2 2 2 2 3 3 3 3 3 3 4 5 5 5 5 6 7 8 8 9 10 10 10 10 11 11
6 5 4 4 4 4 4 4 3 3 3 2 2 3 3 2 1 0 1 2 2 3 3 3 4 4 4 4 5 5 5 5 6 7 8 9 10 9 9 10 11 11 11
6 5 3 3 4 4 4 4 3 3 2 2 1 2 2 1 1 1 2 2 3 3 4 4 5 5 5 5 6 6 6 6 7 8 8 9 10 10 10 11 12 12 12
6 5 4 3 3 4 4 4 3 3 2 1 1 1 2 1 1 2 2 3 3 4 4 5 6 6 6 6 6 6 7 8 8 9 9 10 10 10 11 12 12 12 12
6 5 5 4 4 4 4 4 4 3 2 1 1 1 2 2 2 2 3 3 4 5 5 6 6 6 7 7 7 7 8 9 9 9 10 10 10 11 12 12 12 12 13
5 5 5 4 4 3 4 4 4 3 3 3 2 1 2 3 3 3 3 4 4 5 6 6 7 7 7 8 8 8 8 9 9 9 10 11 11 11 12 13 13 14 14
5 5 5 4 4 3 3 4 4 4 4 4 3 2 2 3 3 4 3 4 5 5 6 7 7 8 8 9 9 9 9 9 9 10 10 11 11 11 12 13 14 14 15
5 5 4 4 4 4 3 3 4 4 4 4 4 3 3 4 4 4 5 5 5 6 7 7 8 8 9 9 10 11 11 11 10 10 11 11 11 12 13 13 14 14 15
5 5 5 4 5 5 5 4 4 5 5 5 5 5 5 5 5 5 6 6 6 7 8 9 9 10 10 11 11 11 12 11 11 11 11 12 13 13 14 14 14 15 16

GEFSSE_500_meanwind_258.txt.gz
Wind_Speed
3 4 4 3 3 4 4 5 4 4 6 6 7 7 7 7 7 8 9 9 9 9 7 7 8 7 8 8 7 6 5 5 5 5 5 4 4 3 3 3 3 3 3
2 3 4 4 3 4 4 5 4 4 5 6 6 7 7 7 7 8 8 9 8 8 8 7 7 7 8 8 7 6 5 5 4 5 4 4 3 3 3 3 3 3 3
3 3 3 4 4 4 4 5 5 5 6 7 6 7 7 7 7 8 8 8 8 8 8 7 7 7 7 8 7 5 5 4 4 4 3 3 2 2 2 3 2 2 2
3 4 4 4 4 4 5 5 6 6 6 6 6 6 7 6 6 7 7 8 8 8 7 7 7 7 7 6 5 5 4 3 3 3 2 2 2 2 2 2 2 2 1
4 5 5 4 4 5 6 6 6 6 6 5 6 6 6 6 6 6 6 7 7 7 7 7 7 7 6 5 4 3 3 3 2 2 2 2 2 2 2 1 1 1 0
5 5 5 5 5 5 6 7 7 6 5 5 6 6 5 6 6 6 5 5 6 6 6 5 5 6 5 4 3 3 2 2 1 2 2 2 2 1 1 1 0 1 1
5 5 5 5 5 5 6 7 7 6 5 5 5 6 6 5 5 5 4 5 4 4 4 4 5 5 4 4 4 3 3 3 3 3 3 2 1 1 1 1 2 2 3
6 6 5 5 5 5 5 5 5 5 5 5 5 5 5 4 4 4 4 3 3 2 2 3 4 4 3 3 3 4 3 4 4 3 4 3 2 2 2 3 3 3 3
6 6 5 5 5 5 5 4 4 4 4 4 4 4 4 4 4 3 3 2 2 2 2 2 2 2 2 1 1 3 3 3 3 4 4 3 3 3 3 2 3 3 3
5 5 5 5 4 4 4 4 4 4 4 3 3 3 3 3 3 2 1 2 2 2 2 1 1 1 1 1 2 2 3 4 4 4 4 4 3 3 3 3 4 4 4
6 5 5 4 4 4 3 3 3 3 3 3 3 3 3 3 2 2 2 2 2 2 2 1 1 0 1 2 2 3 4 4 4 4 5 5 4 4 3 4 4 4 5
6 5 4 4 4 4 3 2 2 2 2 2 2 2 2 2 1 1 1 1 2 1 1 1 0 1 2 3 3 4 4 4 5 5 6 5 5 5 5 5 5 5 5
7 6 6 5 4 4 4 3 2 1 1 1 2 2 1 1 1 1 1 1 0 0 0 0 1 2 3 4 4 5 5 4 5 6 6 6 6 6 6 6 6 7 7
7 7 7 6 5 5 4 3 3 2 2 2 1 1 1 1 2 1 1 1 1 1 2 3 3 3 3 4 4 5 6 5 6 6 6 7 6 6 6 6 7 7 7
7 7 6 6 5 4 4 3 2 2 1 0 0 0 0 1 1 1 1 2 2 2 3 4 4 4 4 5 6 6 6 6 6 6 6 6 6 6 7 7 7 8 8
7 7 6 6 5 5 4 3 2 2 1 1 1 0 0 1 2 2 2 2 3 3 4 4 4 5 5 6 6 6 6 7 6 7 7 6 7 7 7 7 8 8 8
7 6 6 6 6 6 5 4 4 3 3 2 1 0 1 1 2 3 2 2 3 4 4 4 4 5 5 6 7 7 6 7 7 7 7 7 7 7 7 7 7 9 9
7 6 6 6 6 6 5 5 5 4 4 3 2 1 2 2 2 3 3 3 4 4 5 5 5 5 6 7 7 7 7 7 7 7 6 7 7 7 7 8 9 9 9
8 7 6 6 6 7 6 6 5 5 4 3 2 2 2 2 3 3 4 4 4 5 5 5 5 6 6 7 7 7 7 7 7 7 7 7 7 8 8 8 9 10 9
8 7 7 6 6 7 7 7 6 5 4 4 2 2 2 2 3 4 5 5 5 5 6 6 6 7 7 7 7 7 8 8 7 7 7 7 7 7 8 8 9 10 10
8 7 7 6 6 7 7 7 6 5 5 5 3 3 2 3 4 4 5 5 6 6 6 7 7 7 7 7 7 7 8 8 8 8 7 7 7 7 8 9 10 10 10
7 6 6 6 7 7 8 8 7 6 6 6 5 4 4 4 5 5 6 6 7 7 7 7 7 7 7 8 8 8 9 8 8 8 8 7 8 9 9 10 10 10 10
7 6 7 7 8 8 8 8 8 7 6 6 7 6 5 5 6 6 6 6 7 7 7 7 7 8 8 9 9 10 10 10 9 9 8 8 8 9 9 9 9 10 11
7 6 7 7 8 8 8 8 8 7 7 7 7 7 6 6 6 6 6 7 7 8 7 8 8 8 9 9 10 10 11 11 10 10 9 9 9 9 10 11 11 12 12
7 6 6 8 8 8 8 8 8 8 7 8 8 7 7 7 7 7 7 7 8 8 9 9 9 9 10 10 10 11 11 11 11 10 10 11 11 11 12 12 12 13 13
7 6 6 7 8 8 8 9 8 8 8 9 8 8 8 8 8 8 8 8 9 9 10 10 10 10 11 11 11 11 12 12 12 12 12 12 12 13 13 14 14 15 15

GEFSSE_500_meanwind_264.txt.gz
Wind_Speed
4 4 4 3 4 4 4 4 5 4 5 4 5 5 7 7 7 7 7 7 7 6 6 7 7 8 8 8 7 7 6 6 5 5 5 5 5 4 4 4 4 4 3
4 4 3 3 3 3 4 4 4 4 5 4 5 5 6 7 7 7 7 7 6 6 6 6 7 7 8 7 7 6 6 5 5 4 5 5 5 4 4 4 3 3 3
4 4 4 3 3 3 4 4 4 4 4 5 5 5 5 6 6 7 7 7 6 6 6 6 7 7 8 7 6 5 5 4 4 4 4 4 4 4 3 3 3 3 3
5 5 4 4 4 4 4 5 5 4 4 5 6 6 6 6 6 6 7 7 6 6 6 6 7 7 7 6 6 5 5 4 3 3 3 3 3 3 2 1 1 2 2
7 6 6 5 6 5 5 4 5 4 5 6 6 6 6 6 6 6 7 6 6 6 6 7 7 7 6 5 5 5 4 4 3 2 2 3 2 2 2 1 1 1 2
9 9 8 8 7 6 5 5 6 5 5 6 6 6 6 6 6 7 6 6 5 5 6 6 6 6 5 5 4 4 4 3 3 2 2 2 2 2 2 2 2 2 2
10 9 9 9 8 8 7 7 7 6 6 6 6 6 6 7 6 6 5 5 4 5 5 6 6 6 5 4 4 4 3 3 3 2 3 3 4 3 3 3 2 2 2
9 9 9 9 9 8 8 8 7 6 6 6 6 5 6 6 6 5 4 4 4 4 4 4 4 4 3 2 2 3 3 4 3 4 3 4 4 4 4 3 3 2 2
8 8 9 9 8 8 7 6 7 6 6 6 5 5 5 5 5 5 4 3 3 3 4 3 3 2 2 2 2 2 3 3 4 4 4 4 4 4 4 4 3 3 3
8 8 8 8 8 8 7 7 6 6 5 5 5 6 6 5 5 4 4 4 4 4 4 3 3 3 2 2 2 2 2 2 3 3 4 4 4 4 4 5 4 4 3
9 8 8 8 7 7 7 7 6 6 5 5 5 6 6 6 5 5 5 5 5 4 4 3 3 2 2 2 1 1 2 2 2 3 3 3 3 4 5 5 5 4 3
9 9 8 7 7 7 6 6 6 6 5 5 5 5 5 5 5 4 4 5 4 3 3 2 1 1 1 0 1 1 2 2 2 3 3 3 3 4 4 4 5 5 4
10 9 8 8 7 6 6 5 5 5 5 5 4 4 5 5 4 4 4 4 4 3 2 1 0 0 1 0 0 1 2 2 2 3 4 4 3 4 4 4 4 5 5
9 9 8 8 7 6 6 5 5 5 5 5 5 5 5 5 4 4 3 3 2 2 1 1 1 0 1 0 1 1 2 3 3 3 4 4 3 4 4 4 4 4 5
9 9 8 8 8 8 7 5 5 5 5 4 5 4 4 3 3 3 2 2 1 1 1 1 1 1 1 1 1 2 3 3 3 4 4 3 4 4 5 5 5 5 5
9 10 9 8 8 8 8 7 6 5 5 4 4 3 3 3 3 2 2 2 1 0 0 1 1 2 2 2 2 3 3 4 4 4 4 4 4 5 5 5 5 6 6
9 9 9 9 8 8 8 8 7 6 5 4 3 3 2 2 2 2 1 1 0 1 1 2 2 2 3 3 3 3 4 5 4 5 5 5 5 5 5 5 6 6 6
9 9 9 8 8 9 8 8 7 6 5 4 3 3 2 2 1 1 1 0 0 1 2 3 3 3 3 3 4 4 4 5 5 6 6 6 6 5 6 6 6 6 7
9 8 8 9 9 8 8 7 7 6 6 5 4 3 3 2 1 1 0 1 1 2 2 3 3 3 3 4 4 5 5 6 6 7 7 7 6 6 6 6 6 7 7
9 9 9 9 9 8 8 8 7 7 7 6 5 5 3 2 2 1 1 1 2 2 3 3 4 4 4 5 5 5 5 6 6 6 6 7 6 6 6 6 7 7 7
8 9 8 8 8 9 9 8 8 8 7 7 6 5 4 4 2 1 1 2 3 3 4 4 4 4 5 5 5 5 5 5 5 5 6 6 6 6 7 7 7 7 7
8 7 7 7 7 8 8 8 8 8 8 7 6 5 5 4 3 2 2 2 3 4 4 4 4 5 5 5 5 6 6 6 5 6 7 7 7 7 7 7 8 8 8
6 6 6 6 6 6 7 7 7 7 7 6 6 5 5 4 4 3 3 3 4 4 4 4 4 5 5 6 7 7 7 7 7 7 7 7 8 9 8 8 8 9 10
6 5 5 4 5 5 5 6 6 6 6 6 5 4 5 5 4 4 4 4 4 4 4 4 4 5 6 6 7 7 7 8 8 8 8 8 8 9 9 9 10 11 11
5 5 4 4 4 5 5 6 6 6 6 6 5 4 5 5 4 4 5 5 5 6 6 6 6 6 7 7 7 8 8 9 9 9 8 8 8 9 10 11 11 12 12
5 4 3 3 4 5 5 5 6 6 6 6 6 6 5 5 6 5 6 6 6 6 7 7 8 8 8 8 8 9 10 10 9 9 9 9 9 10 11 12 12 13 13

GEFSSE_500_meanwind_270.txt.gz
Wind_Speed
5 5 4 4 5 5 5 6 5 6 6 6 6 6 6 6 6 7 7 7 6 6 5 5 5 4 4 5 5 4 4 4 3 2 2 2 2 1 1 1 0 1 1
5 5 5 5 5 5 5 5 5 5 5 5 5 5 5 5 5 6 6 5 5 5 5 5 4 4 4 5 4 4 4 4 3 2 2 2 2 1 1 1 1 0 1
5 5 5 5 4 4 5 6 6 5 5 5 5 6 5 5 4 4 4 5 5 5 5 4 4 4 4 4 3 3 3 3 2 1 1 1 1 1 1 1 1 1 1
5 5 5 5 5 5 5 6 6 5 5 5 5 5 5 5 5 4 5 4 4 5 4 4 4 4 4 4 3 3 3 3 2 1 1 1 1 1 1 1 1 1 1
6 6 6 6 6 5 5 5 5 5 5 5 5 5 5 5 5 5 4 4 4 4 4 4 4 4 4 4 3 3 2 2 2 1 1 1 1 2 2 2 2 2 2
7 7 8 7 6 5 6 6 6 6 6 6 6 6 5 5 4 4 4 4 4 4 3 3 4 4 5 4 4 3 2 2 2 2 2 2 3 3 3 3 3 3 3
8 9 9 9 8 8 9 9 8 7 7 7 6 6 5 5 4 4 4 4 4 4 3 3 3 4 5 5 4 3 3 2 2 2 2 3 3 4 4 4 4 4 3
9 9 9 10 10 10 10 10 9 8 8 7 6 6 5 5 4 4 3 2 3 3 3 3 3 3 3 4 3 2 2 3 3 2 3 3 3 3 4 5 4 4 4
8 9 9 9 10 10 10 9 9 8 8 7 6 6 6 5 4 4 3 2 2 2 2 2 2 3 3 2 2 2 3 2 2 2 2 2 3 3 4 4 4 4 5
8 8 9 9 9 9 9 9 9 9 8 7 7 6 6 5 4 3 3 3 2 3 2 2 2 2 2 1 2 2 2 2 3 2 2 3 3 3 4 4 4 4 5
8 8 8 8 8 8 8 8 8 8 8 7 7 7 6 6 5 4 3 3 4 3 3 3 2 2 1 1 1 1 2 2 3 3 3 3 3 3 4 5 5 5 5
8 8 8 8 7 8 8 8 9 8 8 7 7 6 5 5 5 4 4 4 4 4 3 2 2 1 0 1 1 1 2 2 3 3 3 3 3 4 4 5 5 6 6
9 9 8 8 8 7 8 8 7 7 7 6 6 5 4 4 3 3 3 4 4 4 3 2 2 1 1 1 1 1 2 2 2 2 3 3 3 4 4 5 5 5 6
9 8 8 8 8 8 8 7 7 6 5 5 5 4 4 3 3 3 4 4 3 3 2 2 2 1 1 1 1 2 2 2 2 2 3 4 4 4 4 4 5 5 6
8 8 8 8 8 7 7 7 7 6 6 5 5 4 4 3 3 2 3 3 3 2 2 2 2 2 2 2 2 2 3 2 3 4 4 4 5 5 5 6 6 6 7
8 8 8 8 7 7 6 6 6 6 5 5 5 4 3 2 2 2 2 3 2 2 2 2 3 3 3 3 3 4 4 4 4 4 5 5 6 6 6 7 7 7 8
7 7 7 7 6 6 6 5 5 5 5 4 4 2 2 2 1 2 2 2 2 2 2 2 3 3 3 4 4 5 4 5 5 5 6 6 7 7 7 7 8 9 9
7 7 7 7 6 6 5 5 5 5 5 4 3 3 2 2 1 1 2 2 2 2 2 2 3 3 4 4 5 5 6 6 6 6 7 7 8 8 8 8 8 9 9
6 7 7 7 7 6 6 6 5 5 5 4 4 3 3 2 1 0 2 2 2 2 2 3 4 4 4 5 5 6 6 7 7 7 8 8 8 8 8 9 9 10 10
5 6 6 6 6 6 6 5 4 5 4 4 4 4 3 2 1 1 2 2 3 3 3 3 4 5 5 5 6 7 7 8 8 8 9 9 9 9 10 10 11 11 11
5 5 5 6 6 5 5 5 4 4 4 4 4 4 3 3 2 2 2 3 3 3 4 4 5 5 5 6 6 7 8 8 9 9 10 10 10 11 11 12 12 11 11
5 5 5 5 5 4 5 5 5 4 4 4 4 4 4 3 3 3 2 3 4 4 5 5 6 6 7 7 7 8 8 9 9 10 11 11 12 12 12 12 12 12 12
4 4 3 3 3 3 3 4 4 4 3 3 3 3 3 4 3 3 3 3 3 3 4 5 6 7 8 8 8 9 9 9 10 11 11 12 12 13 13 13 14 14 13
1 1 1 1 1 2 2 2 3 3 3 3 3 3 3 4 4 3 3 4 4 4 5 5 6 7 8 8 9 10 10 11 11 12 13 13 13 14 14 14 14 14 14
2 1 2 1 1 1 1 1 2 3 3 4 4 4 4 5 5 5 5 5 5 5 6 6 7 8 9 9 9 10 11 12 12 13 13 14 14 14 14 14 15 15 15
3 3 3 2 2 2 2 2 3 3 4 4 5 5 5 5 6 6 6 6 6 7 7 8 8 9 9 10 11 12 12 13 13 14 14 14 15 14 14 15 16 16 16